Regional Weather Roundup
Issued by NWS Wakefield, VA

Home | Current Version | Previous Version | Text Only | Print | Product List | Glossary Off
Versions: 1 2 3 4 5 6 7 8 9 10 11 12 13 14 15 16 17 18 19 20 21 22 23 24 25 26 27 28 29 30 31 32 33 34 35 36 37 38 39 40 41 42 43 44 45 46 47 48 49 50

852
ASUS41 KAKQ 250915
RWRAKQ

REGIONAL WEATHER ROUNDUP
NATIONAL WEATHER SERVICE WAKEFIELD VA
500 AM EDT THU MAY 25 2017

Note: "fair" indicates few or no clouds below 12,000 feet with no
significant weather and/or obstructions to visibility. * = Denotes
station may not report precipitation (e.g., rain,snow,etc.),
thunder or fog.

VAZ042-051-052>054-056-251000-
NORTHERN VIRGINIA

CITY           SKY/WX    TMP DP  RH WIND       PRES   REMARKS
WASH NATIONAL  CLOUDY    58  57  97 E12       29.52F
DULLES         RAIN      56  54  93 E9        29.49F FOG
FORT BELVOIR   LGT RAIN  57  55  94 E5        29.49F FOG
QUANTICO       CLOUDY    59  58  96 E9        29.50F
FREDERICKSBRG* RAIN      60  60 100 E3        29.47F
STAFFORD*      LGT RAIN  57  57 100 E6        29.52F
WARRENTON      LGT RAIN  57  54  89 CALM      29.49S
CULPEPER*      DRIZZLE   57  57  99 NE3       29.50S
MANASSAS*      HVY RAIN  57  56  96 VRB3      29.50F FOG
LEESBURG*      DRIZZLE   57  57 100 SE10G16   29.52F
WINCHESTER     LGT RAIN  54  52  94 NE3       29.51F
FRONT ROYAL*   CLOUDY    54  54 100 CALM      29.49F
LURAY*         CLOUDY    55  55 100 N6        29.49R
$$

VAZ048-049-060>072-079>083-251000-
CENTRAL AND SOUTH CENTRAL VIRGINIA

CITY           SKY/WX    TMP DP  RH WIND       PRES   REMARKS
RICHMOND       LGT RAIN  61  61 100 E6        29.46F FOG
CHESTERFIELD*  NOT AVBL
PETERSBURG*    DRIZZLE   63  62  97 CALM      29.47S
HANOVER        CLOUDY    60  60 100 E5        29.47F
TAPPAHANNOCK*  RAIN      61  61 100 E7        29.49F
QUINTON*       CLOUDY    61  61 100 E7        29.47S
CHARLOTTSVILLE HVY RAIN  59  57  93 NW5       29.52R FOG
GORDONSVILLE*  CLOUDY    57  57 100 NE5       29.47S FOG
ORANGE*        RAIN      55  55 100 CALM      29.48F
LOUISA*        DRIZZLE   61  61 100 CALM      29.45F
BUMPASS*       CLOUDY    58  58 100 SE7       29.47F
FARMVILLE*     LGT RAIN  61  58  90 W3        29.47F
CREWE*         CLOUDY    59  55  88 W6        29.50R
FORT PICKETT*  CLOUDY    58  55  88 W8G30     29.52R
CHASE CITY*    CLOUDY    59  57  95 CALM      29.50R
CLARKSVILLE*   PTSUNNY   61  61 100 CALM      29.46F
SOUTH HILL*    CLOUDY    61  60  99 SW7       29.57R
LAWRENCEVILLE* CLOUDY    62  60  94 MISG      29.51R
EMPORIA*       HVY RAIN  68  66  94 SE12      29.49R
$$

VAZ088>098-251000-
SOUTHEAST VIRGINIA

CITY           SKY/WX    TMP DP  RH WIND       PRES   REMARKS
NORFOLK        CLOUDY    68  68 100 S13       29.50F
VIRGINIA BEACH LGT RAIN  69  66  90 SE10      29.50S
NORFOLK NAVAL  NOT AVBL
WEST POINT*    CLOUDY    65  65  98 SE7       29.49R
SALUDA*        CLOUDY    66  66 100 SE8       29.49F
NEWPORT NEWS   CLOUDY    69  67  93 S12       29.49S
LANGLEY AFB    CLOUDY    69  69 100 S10       29.48F
FORT EUSTIS    CLOUDY    68  66  94 SE9       29.46S
WILLIAMSBURG*  CLOUDY    70  70 100 SE10G17   29.48F
HR EXEC AP*    CLOUDY    70  66  88 S9        29.49S
FRANKLIN*      LGT RAIN  69  67  94 S12       29.50R
US460-WAKEFLD  CLOUDY    67  67 100 VRB5      29.48F
$$

VAZ020-022-025-037-045-251000-
WEST CENTRAL AND SOUTHWEST VIRGINIA

CITY           SKY/WX    TMP DP  RH WIND       PRES   REMARKS
STAUNTON*      RAIN      55  55  99 CALM      29.53R
WAYNESBORO*    CLOUDY    55  55 100 CALM      29.52R
HOT SPRINGS VA LGT RAIN  43  39  87 CALM      29.54R VSB 1/4
LYNCHBURG      LGT RAIN  59  58  96 SE5       29.49F
DANVILLE       CLOUDY    60  60 100 CALM      29.47F
SOUTH BOSTON*  PTSUNNY   60  58  96 NE3       29.46F
MARTINSVILLE   CLOUDY    58  58  97 CALM      29.51R
ROANOKE        LGT RAIN  58  58 100 W7        29.49F
BLACKSBURG     CLOUDY    56  55  96 CALM      29.53S FOG
DUBLIN*        CLOUDY    57  55  92 CALM      29.51F FOG
MARION*        CLOUDY    54  51  90 W14G21    29.55R
HILLSVILLE*    CLOUDY    54  49  83 CALM      29.51R
RICHLANDS*     PTSUNNY   50  24  36 W12       29.54R
WISE*          CLOUDY    50  50 100 SW8       29.55R
ABINGDON*      CLOUDY    54  51  92 W7        29.56R
$$

MDZ021>025-VAZ099-100-251000-
SOUTHERN MARYLAND AND THE DELMARVA PENINSULA

CITY           SKY/WX    TMP DP  RH WIND       PRES   REMARKS
PATUXENT RIVER LGT RAIN  60  60 100 E17       29.51F
BAY BRIDGE APT LGT RAIN  55  55 100 E14G22    29.55F
LEONARDTOWN    CLOUDY    59  55  88 E7        29.52F
DOVER          LGT RAIN  57  57 100 NE9       29.59F FOG
GEORGETOWN     LGT RAIN  58  56  93 E7        29.59F FOG
EASTON         CLOUDY    57  55  92 E13       29.59F
CAMBRIDGE      CLOUDY    57  55  94 E14G20    29.54F
SALISBURY      LGT RAIN  58  58 100 E10       29.56F
OCEAN CITY     CLOUDY    59  58  96 E9        29.58F
WALLOPS ISLAND LGT RAIN  63  63 100 VRB7      29.55F
ACCOMACK*      CLOUDY    65  18  16 SE14G20   29.53F
$$

NCZ012>017-030>032-251000-
NORTH CENTRAL AND EASTERN NORTH CAROLINA

CITY           SKY/WX    TMP DP  RH WIND       PRES   REMARKS
ROANOKE RAPIDS CLOUDY    68  68 100 SW13      29.50R
RALEIGH        CLOUDY    61  60  97 S7        29.50F
ELIZABETH CITY HVY RAIN  70  70 100 S12G23    29.52S FOG
AHOSKIE*         N/A     68  67  97 S9        29.51R
EDENTON*       CLOUDY    73  69  90 S13       29.52F
CURRITUCK*     RAIN     N/A N/A N/A S6        29.54R
KILL DEVIL HLS LGT RAIN  71  71 100 SE6       29.52F
MANTEO         CLOUDY    73  70  92 S23G29    29.54F
CAPE HATTERAS  NOT AVBL
TARBORO*       NOT AVBL
GOLDSBORO      CLOUDY    70  70 100 S7        29.50S
WASHINGTON     CLOUDY    68  68  98 S7        29.52S
GREENVILLE     CLOUDY    70  70 100 SW10      29.56R
NEW BERN       CLOUDY    69  68  96 SW7       29.54S
WILMINGTON     CLOUDY    72  68  87 SW10      29.55R
$$

VAZ048-251000-
ELSEWHERE

CITY           SKY/WX    TMP DP  RH WIND       PRES   REMARKS
HARRISBURG PA  LGT RAIN  57  55  93 E13       29.57F FOG
BALTIMORE      LGT RAIN  56  56 100 E17       29.54F FOG
ANNAPOLIS      LGT RAIN  59  59 100 MISG      29.53F FOG
ANDREWS AFB    CLOUDY    56  55  99 E15G24    29.50F FOG
PHILADELPHIA   LGT RAIN  56  53  90 E13G21    29.65F
HENDERSON NC   CLOUDY    57  56  94 CALM      29.47F
GREENSBORO     MOCLDY    58  58 100 S7        29.49R
ROCKY MOUNT    CLOUDY    69  68  96 S6        29.51R
$$

VAZ100-251000-
MARINE

STATION/POSITION TIME  TEMP    WIND        PRES    WAVE   SWELL
                       AIR SEA DIR/SP/G            HT/PER HT/PER
                 (UTC) (F)     (DEG/KT/KT) (MB)    (FT/S) (FT/S)
CAPE MAY NJ      0848   56 60   70/ 11/ 19 1001.9F
LEWES DE         0848   57 62  100/ 16/ 23 1001.6F
15NM E FENWICK I 0750   56 55   60/ 17/ 19 1003.0    5/ 7   2/14
WACHAPREAGUE VA  0848   64 64  130/  6/ 10  999.7F
THOMAS POINT MD  0900   57 64   90/ 20/ 22   N/A
GOOSES REEF MD   0850   59     130/ 16/ 19 1000.8F
COVE POINT MD    0848   58     120/ 10/ 13 1000.3F
SOLOMONS ISLAND  0848   61 66   90/ 16/ 21   N/A
BISHOPS HEAD MD  0848   61 64   90/ 18/ 21  999.5F
PINEY POINT MD   0848          120/ 16/ 17   N/A
POTOMAC MD       0850   64     140/ 17/ 23  997.6F
CAMBRIDGE MD     0842   59 66                N/A
LEWISETTA VA     0848   64 66  130/ 15/ 18  998.4F
RAPPAHANNOCK LGT 0848          130/ 17/ 18  999.8F
STINGRAY PT      0850   67     180/ 17/ 19  998.7F
YORK RVR RNG VA  0848   67     150/ 17/ 18  997.9F
YORKTOWN VA      0848   68 68  160/  9/ 12  998.0F
JAMESTOWN VA     0850   68     140/ 12/ 16   N/A
DOMINION TERM VA 0848   70     170/ 16/ 20  998.4F
KIPTOPEKE VA     0848      64  170/ 17/ 19   N/A
CHES BAY BRIDGE  0848   69 67  180/ 14/ 17  998.8F
CAPE HENRY VA    0848   67     160/ 11/ 17   N/A
WILLOUBY STN VA  0848   70     170/ 16/ 18  998.5S
S CRANEY ISL VA  0848   70     170/ 14/ 16  998.6F
CAPE HENRY BUOY  0842      62                N/A     5/ 7
1ST LANDING BUOY 0850   69                  999.4F
CAPE CHARLES BUO 0851      61                N/A     5/ 4
64NM E OF VA BCH 0850   68 64  170/ 12/ 12 1001.5F   5/ 8   3/ 8
DUCK PIER NC     0848   67 65  150/ 10/ 15  999.5F
44100 DUCK FRF   0805      62                N/A     5/ 7
44056 DUCK FRF   0830      65                N/A     5/ 7
OREGON INLET NC  0848          170/ 18/ 24   N/A
HATTERAS NC      0848   72 74  180/ 10/ 17 1000.8R
DIAMOND SHLS NC  0850   74 76  200/ 17/ 19 1001.2F   6/ 6   2/10
CAPE LOOKOUT NC  0800   72     180/ 20/ 24 1000.2F
$$




USA.gov is the U.S. government's official web portal to all federal, state and local government web resources and services.